Weather History for KHGR - January, 2012

Change the Weather History Date:

Monday, January 2, 2012

  Actual Average Record
Temperature  
Mean Temperature 32 °F 31 °F  
Max Temperature 37 °F 38 °F 64 °F (2000)
Min Temperature 27 °F 23 °F 12 °F (1999)
Degree Days  
Heating Degree Days 33 34  
Month to date heating degree days 68  
Since 1 July heating degree days 2032  
Cooling Degree Days 0 0  
Month to date cooling degree days 0  
Year to date cooling degree days 0  
Moisture  
Dew Point 16 °F    
Average Humidity 51    
Maximum Humidity 66    
Minimum Humidity 37    
Precipitation  
Precipitation 0.00 in 0.09 in 0.85 in (2006)
Month to date precipitation 0.18  
Year to date precipitation 0.18  
Sea Level Pressure  
Sea Level Pressure 29.92 in    
Wind  
Wind Speed 17 mph (West)    
Max Wind Speed 28 mph    
Max Gust Speed 37 mph    
Visibility 10 miles    
Events      
T = Trace of Precipitation, MM = Missing Value Source: NWS Daily Summary

Daily Weather History Graph

Daily Weather History Graph

Search for Another Location

Airport or City:

Trip Planner

Search our weather history database for the weather conditions in past years. The results will help you decide how hot, cold, wet, or windy it might be!

Date:

Astronomy

Jan. 02, 2012 Rise Set
Actual Time 7:32 AM EST 4:57 PM EST
Civil Twilight 7:01 AM EST 5:27 PM EST
Nautical Twilight 6:28 AM EST 6:01 PM EST
Astronomical Twilight 5:55 AM EST 6:34 PM EST
Moon 12:12 PM EST (1/2) 1:23 AM EST (1/2)
Length of Visible Light 10h 26m
Length of Day
9h 25m
Waxing Gibbous, 63% of the Moon is Illuminated
Jan 2
Waxing Gibbous
Jan 9
Full
Jan 16
Last Quarter
Jan 23
New
Jan 30
First Quarter

Hourly Weather History & Observations

Time (EST) Temp. Windchill Dew Point Humidity Pressure Visibility Wind Dir Wind Speed Gust Speed Precip Events Conditions
12:53 AM 37.9 °F 26.6 °F 26.1 °F 62% 29.88 in 10.0 mi West 25.3 mph 32.2 mph 0.00 in   Overcast
1:53 AM 37.0 °F 28.1 °F 21.0 °F 52% 29.90 in 10.0 mi West 15.0 mph 25.3 mph N/A   Mostly Cloudy
2:53 AM 35.1 °F 24.1 °F 14.0 °F 42% 29.91 in 10.0 mi WNW 19.6 mph 35.7 mph N/A   Overcast
3:53 AM 35.1 °F 22.2 °F 10.9 °F 37% 29.91 in 10.0 mi West 27.6 mph 36.8 mph N/A   Mostly Cloudy
4:53 AM 32.0 °F 20.1 °F 12.9 °F 45% 29.91 in 10.0 mi West 19.6 mph 31.1 mph N/A   Partly Cloudy
5:53 AM 30.9 °F 22.2 °F 12.9 °F 47% 29.91 in 10.0 mi West 10.4 mph - N/A   Clear
6:53 AM 32.0 °F 19.5 °F 14.0 °F 48% 29.89 in 10.0 mi West 21.9 mph 27.6 mph N/A   Clear
7:53 AM 32.0 °F 25.6 °F 15.1 °F 50% 29.91 in 10.0 mi WSW 6.9 mph - N/A   Scattered Clouds
8:53 AM 32.0 °F 23.0 °F 17.1 °F 54% 29.92 in 10.0 mi West 11.5 mph - N/A   Clear
11:53 AM 34.0 °F 25.5 °F 17.1 °F 50% 29.90 in 10.0 mi WSW 11.5 mph 18.4 mph N/A   Overcast
12:53 PM 35.1 °F 24.5 °F 15.1 °F 44% 29.88 in 10.0 mi West 18.4 mph 24.2 mph N/A   Overcast
2:53 PM 36.0 °F 26.7 °F 16.0 °F 44% 29.88 in 10.0 mi West 15.0 mph 24.2 mph N/A   Overcast
3:53 PM 35.1 °F 26.9 °F 15.1 °F 44% 29.89 in 10.0 mi West 11.5 mph - N/A   Partly Cloudy
4:53 PM 33.1 °F 24.9 °F 16.0 °F 50% 29.92 in 10.0 mi West 10.4 mph - N/A   Scattered Clouds
5:53 PM 32.0 °F 23.0 °F 16.0 °F 52% 29.94 in 10.0 mi West 11.5 mph - N/A   Overcast
7:53 PM 30.9 °F 22.8 °F 16.0 °F 54% 29.96 in 10.0 mi West 9.2 mph - N/A   Scattered Clouds
8:53 PM 28.9 °F 19.2 °F 17.1 °F 61% 29.96 in 10.0 mi West 11.5 mph - N/A   Mostly Cloudy
9:53 PM 28.0 °F 16.5 °F 18.0 °F 66% 29.96 in 10.0 mi WNW 15.0 mph - N/A   Partly Cloudy
10:53 PM 27.0 °F 18.0 °F 17.1 °F 66% 29.97 in 10.0 mi WNW 9.2 mph - N/A   Partly Cloudy
11:53 PM 27.0 °F 17.3 °F 15.1 °F 61% 29.97 in 10.0 mi West 10.4 mph - N/A   Partly Cloudy